Regional Weather Roundup
Issued by NWS Newport/Morehead, NC

Current Version | Previous Version | Graphics & Text | Print | Product List | Glossary On
Versions: 1 2 3 4 5 6 7 8 9 10 11 12 13 14 15 16 17 18 19 20 21 22 23 24 25 26 27 28 29 30 31 32 33 34 35 36 37 38 39 40 41 42 43 44 45 46 47 48 49 50
000 ASUS42 KMHX 230425 RWRMHX WEATHER ROUNDUP FOR EASTERN NORTH CAROLINA NATIONAL WEATHER SERVICE NEWPORT/MOREHEAD CITY NC 1200 AM EDT SAT MAY 23 2015 NOTE: "FAIR" INDICATES FEW OR NO CLOUDS BELOW 12,000 FEET WITH NO SIGNIFICANT WEATHER AND/OR OBSTRUCTIONS TO VISIBILITY NCZ015>017-031-032-045>047-102-103-230500- NORTH COAST CITY SKY/WX TMP DP RH WIND PRES REMARKS EDENTON CLEAR 62 55 77 S9 30.27S ELIZABETH CITY CLEAR 59 52 77 S6 30.26R KITTY HAWK CLEAR 64 53 68 SW5 30.26R MANTEO CLEAR 65 54 69 SW10 30.27S $$ NCZ045>047-081-094-103-104-230500- CENTRAL COAST CITY SKY/WX TMP DP RH WIND PRES REMARKS FRISCO CLEAR 50 45 83 CALM 30.28R SWANQUARTER N/A 57 N/A N/A E2 30.24S $$ NCZ095-097-098-100-101-230500- SOUTHERN COAST CITY SKY/WX TMP DP RH WIND PRES REMARKS BEAUFORT CLEAR 58 56 93 CALM 30.28S CEDAR ISLAND N/A 61 N/A N/A S2 30.33S JACKSONVILLE PTCLDY 58 55 90 CALM 30.28R PINEY ISLAND CLEAR N/A N/A N/A S5 30.28R WILMINGTON CLEAR 59 57 93 CALM 30.28R $$ NCZ011>013-027>030-043-044-078>080-089-090>093-098-230500- COASTAL PLAIN CITY SKY/WX TMP DP RH WIND PRES REMARKS AHOSKIE CLEAR 52 50 91 CALM 30.27S CLINTON CLEAR 56 54 95 CALM 30.30R ELIZABETHTOWN CLEAR 57 52 84 CALM 30.29R GOLDSBORO CLEAR 55 52 89 CALM 30.26S GREENVILLE CLEAR 55 55 100 CALM 30.29R HAVELOCK CLEAR 59 53 80 CALM 30.29S KENANSVILLE CLEAR 53 51 94 CALM 30.30S KINSTON CLEAR 54 52 94 CALM 30.29S NEW BERN CLEAR 57 53 86 CALM 30.30R RICHLANDS CLEAR 54 48 82 CALM 30.29S ROCKY MOUNT CLEAR 53 51 93 CALM 30.28R WASHINGTON CLEAR 56 53 89 CALM 30.29R WHITEVILLE CLEAR 58 55 90 CALM 30.29R $$ AMZ130-135-150-152-154-156-158-170-250-252-270-ANZ085-086-088-633-658-670-230500- MARINE OBSERVATIONS STATION/POSITION TIME TEMP WIND PRES WAVE SWELL AIR SEA DIR/SP/G HT/PER HT/PER (UTC) (F) (DEG/KT/KT) (MB) (FT/S) (FT/S) CHESAPEAKE LIGHT 0400 64 210/ 15/ 15 1024.4 64 E VA BEACH 0350 62 60 210/ 10/ 10 1023.7 2/ 6 2/ 6 DUCK 0400 66 64 210/ 10/ 12 1023.7 2 E DUCK 0311 65 N/A 2/ 7 OREGON INLET 0400 67 71 200/ 7/ 8 1025.0 13E OREGON INLT 0400 62 N/A 3/ 7 HATTERAS CG 0400 64 73 CALM / 1 1024.7 DIAMOND BUOY 0350 67 77 10/ 4/ 4 1025.2 3/ 9 3/ 9 CAPE LOOKOUT 0400 67 80/ 3/ 4 1025.1 BEAUFORT LAB 0400 65 74 CALM / 1 1024.6 27 SE WRIGHTSVLE 0400 67 77 70/ 10/ 10 N/A 5 SE WRIGHTSVLE 0308 71 76 60/ 6/ 10 1024.8 225 S CAPE HAT 0350 72 74 40/ 16/ 19 1023.2 6/ 9 3/ 9 41 SE CHARLESTON 0350 73 76 50/ 12/ 16 1023.7 3/ 6 2/ 7 $$

USA.gov is the U.S. government's official web portal to all federal, state and local government web resources and services.